When you browse on this site, cookies collect data to enhance your experience and personalize the content and advertising you see.
Visit our Privacy Policy to learn more. By continuing to use the site, you agree to this use of cookies and data.
  • In Deutschland
  • Länderverzeichnis
  • Für 7 Tage
  • Wassertemperatur
  • Satellitenkarten
  • Wetterkarte
  • Widgets
  • user-avatar
    Anmelden

    Stündliche Wetter San Luis

    Heute, 23 März, Samstag

    Zeit Temperatur Niederschläge Wind Luftdruck Luftfeuchtigkeit
    00:00 +18°C° 0 mm 4 m/S 699 mmHg 57%
    01:00 +17°C° 0 mm 5 m/S 699 mmHg 58%
    02:00 +17°C° 0 mm 5 m/S 698 mmHg 59%
    03:00 +17°C° 0 mm 6 m/S 698 mmHg 60%
    04:00 +17°C° 0 mm 6 m/S 698 mmHg 62%
    05:00 +17°C° 0 mm 6 m/S 698 mmHg 63%
    06:00 +18°C° 0 mm 7 m/S 698 mmHg 60%
    07:00 +20°C° 0 mm 7 m/S 698 mmHg 57%
    08:00 +22°C° 0 mm 8 m/S 698 mmHg 54%
    09:00 +24°C° 0 mm 7 m/S 699 mmHg 47%
    10:00 +27°C° 0 mm 7 m/S 699 mmHg 39%
    11:00 +29°C° 0 mm 7 m/S 699 mmHg 32%
    12:00 +30°C° 0 mm 6 m/S 699 mmHg 30%
    13:00 +32°C° 0 mm 4 m/S 699 mmHg 28%
    14:00 +33°C° 0 mm 3 m/S 698 mmHg 26%
    15:00 +31°C° 0 mm 3 m/S 698 mmHg 26%
    16:00 +31°C° 0 mm 2 m/S 698 mmHg 27%
    17:00 +31°C° 0 mm 2 m/S 697 mmHg 27%
    18:00 +28°C° 0 mm 2 m/S 697 mmHg 35%
    19:00 +25°C° 0 mm 2 m/S 697 mmHg 43%
    20:00 +21°C° 0 mm 2 m/S 698 mmHg 50%
    21:00 +21°C° 0 mm 1 m/S 698 mmHg 53%
    22:00 +21°C° 0 mm 1 m/S 699 mmHg 56%
    23:00 +20°C° 0 mm 1 m/S 699 mmHg 59%

    Morgen, 24 März, Sonntag

    Zeit Temperatur Niederschläge Wind Luftdruck Luftfeuchtigkeit
    00:00 +19°C° 0 mm 2 m/S 699 mmHg 57%
    01:00 +19°C° 0 mm 2 m/S 700 mmHg 56%
    02:00 +18°C° 0 mm 3 m/S 700 mmHg 54%
    03:00 +18°C° 0 mm 3 m/S 700 mmHg 52%
    04:00 +18°C° 0 mm 4 m/S 701 mmHg 50%
    05:00 +18°C° 0 mm 4 m/S 701 mmHg 48%
    06:00 +17°C° 0 mm 5 m/S 702 mmHg 44%
    07:00 +19°C° 0 mm 5 m/S 702 mmHg 40%
    08:00 +19°C° 0 mm 6 m/S 703 mmHg 35%
    09:00 +21°C° 0 mm 6 m/S 704 mmHg 34%
    10:00 +23°C° 0 mm 6 m/S 704 mmHg 32%
    11:00 +26°C° 0 mm 6 m/S 704 mmHg 30%
    12:00 +27°C° 0 mm 6 m/S 704 mmHg 29%
    13:00 +27°C° 0 mm 6 m/S 703 mmHg 28%
    14:00 +28°C° 0 mm 6 m/S 703 mmHg 27%
    15:00 +28°C° 0 mm 6 m/S 702 mmHg 28%
    16:00 +27°C° 0 mm 7 m/S 701 mmHg 30%
    17:00 +26°C° 0 mm 7 m/S 700 mmHg 31%
    18:00 +24°C° 0 mm 7 m/S 700 mmHg 35%
    19:00 +22°C° 0 mm 7 m/S 700 mmHg 38%
    20:00 +20°C° 0 mm 6 m/S 700 mmHg 41%
    21:00 +20°C° 0 mm 6 m/S 701 mmHg 42%
    22:00 +20°C° 0 mm 6 m/S 701 mmHg 42%
    23:00 +19°C° 0 mm 6 m/S 701 mmHg 42%

    übermorgen, 25 März, Montag

    Zeit Temperatur Niederschläge Wind Luftdruck Luftfeuchtigkeit
    00:00 +20°C° 0 mm 5 m/S 701 mmHg 42%
    01:00 +20°C° 0 mm 5 m/S 701 mmHg 41%
    02:00 +21°C° 0 mm 5 m/S 701 mmHg 40%
    03:00 +20°C° 0 mm 5 m/S 700 mmHg 43%
    04:00 +20°C° 0 mm 5 m/S 700 mmHg 45%
    05:00 +20°C° 0 mm 5 m/S 700 mmHg 48%
    06:00 +19°C° 0.1 mm 5 m/S 700 mmHg 50%
    07:00 +19°C° 0.1 mm 4 m/S 701 mmHg 53%
    08:00 +19°C° 0.1 mm 4 m/S 701 mmHg 56%
    09:00 +19°C° 0.2 mm 4 m/S 701 mmHg 57%
    10:00 +19°C° 0.2 mm 4 m/S 702 mmHg 58%
    11:00 +20°C° 0.2 mm 4 m/S 702 mmHg 59%
    12:00 +21°C° 0 mm 4 m/S 702 mmHg 55%
    13:00 +23°C° 0 mm 4 m/S 701 mmHg 52%
    14:00 +25°C° 0 mm 4 m/S 701 mmHg 49%
    15:00 +23°C° 0 mm 4 m/S 701 mmHg 52%
    16:00 +23°C° 0 mm 5 m/S 700 mmHg 55%
    17:00 +22°C° 0 mm 5 m/S 700 mmHg 59%
    18:00 +20°C° 0 mm 6 m/S 700 mmHg 64%
    19:00 +19°C° 0 mm 6 m/S 701 mmHg 70%
    20:00 +17°C° 0 mm 7 m/S 701 mmHg 76%
    21:00 +16°C° 0.1 mm 6 m/S 702 mmHg 77%
    22:00 +16°C° 0.1 mm 6 m/S 702 mmHg 77%
    23:00 +16°C° 0.1 mm 6 m/S 703 mmHg 77%

    26 März, Dienstag

    Zeit Temperatur Niederschläge Wind Luftdruck Luftfeuchtigkeit
    00:00 +16°C° 0.2 mm 6 m/S 703 mmHg 77%
    01:00 +16°C° 0.2 mm 5 m/S 703 mmHg 77%
    02:00 +16°C° 0.2 mm 5 m/S 702 mmHg 77%
    03:00 +15°C° 0.1 mm 5 m/S 703 mmHg 76%
    04:00 +15°C° 0.1 mm 5 m/S 703 mmHg 75%
    05:00 +15°C° 0.1 mm 5 m/S 703 mmHg 74%
    06:00 +16°C° 0 mm 5 m/S 703 mmHg 72%
    07:00 +16°C° 0 mm 5 m/S 704 mmHg 70%
    08:00 +16°C° 0 mm 5 m/S 705 mmHg 68%
    09:00 +17°C° 0.1 mm 5 m/S 705 mmHg 67%
    10:00 +19°C° 0.1 mm 4 m/S 705 mmHg 65%
    11:00 +20°C° 0.1 mm 4 m/S 705 mmHg 63%
    12:00 +19°C° 0.8 mm 4 m/S 705 mmHg 68%
    13:00 +18°C° 0.8 mm 4 m/S 704 mmHg 73%
    14:00 +17°C° 0.8 mm 4 m/S 704 mmHg 78%
    15:00 +17°C° 0.4 mm 4 m/S 704 mmHg 77%
    16:00 +16°C° 0.4 mm 5 m/S 703 mmHg 75%
    17:00 +15°C° 0.4 mm 5 m/S 703 mmHg 74%
    18:00 +15°C° 0 mm 5 m/S 704 mmHg 75%
    19:00 +15°C° 0 mm 4 m/S 704 mmHg 75%
    20:00 +15°C° 0 mm 4 m/S 704 mmHg 75%
    21:00 +15°C° 0 mm 4 m/S 705 mmHg 77%
    22:00 +16°C° 0 mm 3 m/S 705 mmHg 78%
    23:00 +14°C° 0 mm 3 m/S 705 mmHg 79%

    27 März, Mittwoch

    Zeit Temperatur Niederschläge Wind Luftdruck Luftfeuchtigkeit
    00:00 +14°C° 0 mm 3 m/S 705 mmHg 80%
    01:00 +14°C° 0 mm 3 m/S 705 mmHg 82%
    02:00 +14°C° 0 mm 3 m/S 705 mmHg 83%
    03:00 +14°C° 0 mm 3 m/S 704 mmHg 83%
    04:00 +14°C° 0 mm 3 m/S 704 mmHg 84%
    05:00 +14°C° 0 mm 3 m/S 704 mmHg 85%
    06:00 +14°C° 0 mm 4 m/S 704 mmHg 81%
    07:00 +15°C° 0 mm 4 m/S 705 mmHg 77%
    08:00 +17°C° 0 mm 4 m/S 705 mmHg 73%
    09:00 +19°C° 0 mm 5 m/S 705 mmHg 66%
    10:00 +21°C° 0 mm 5 m/S 705 mmHg 58%
    11:00 +22°C° 0 mm 5 m/S 706 mmHg 51%
    12:00 +23°C° 0 mm 5 m/S 705 mmHg 49%
    13:00 +23°C° 0 mm 5 m/S 705 mmHg 48%
    14:00 +25°C° 0 mm 5 m/S 704 mmHg 47%
    15:00 +25°C° 0 mm 4 m/S 704 mmHg 47%
    16:00 +25°C° 0 mm 4 m/S 703 mmHg 47%
    17:00 +25°C° 0 mm 3 m/S 703 mmHg 47%
    18:00 +22°C° 0 mm 3 m/S 703 mmHg 53%
    19:00 +20°C° 0 mm 3 m/S 703 mmHg 59%
    20:00 +18°C° 0 mm 3 m/S 703 mmHg 65%
    21:00 +18°C° 0 mm 3 m/S 703 mmHg 66%
    22:00 +17°C° 0 mm 4 m/S 703 mmHg 67%
    23:00 +17°C° 0 mm 4 m/S 703 mmHg 68%

    28 März, Donnerstag

    Zeit Temperatur Niederschläge Wind Luftdruck Luftfeuchtigkeit
    00:00 +16°C° 0 mm 5 m/S 703 mmHg 67%
    01:00 +16°C° 0 mm 5 m/S 703 mmHg 67%
    02:00 +16°C° 0 mm 6 m/S 702 mmHg 67%
    03:00 +16°C° 0 mm 6 m/S 702 mmHg 67%
    04:00 +15°C° 0 mm 6 m/S 702 mmHg 67%
    05:00 +15°C° 0 mm 6 m/S 702 mmHg 67%
    06:00 +16°C° 0 mm 7 m/S 702 mmHg 63%
    07:00 +17°C° 0 mm 7 m/S 702 mmHg 60%
    08:00 +18°C° 0 mm 8 m/S 703 mmHg 57%
    09:00 +21°C° 0 mm 8 m/S 703 mmHg 51%
    10:00 +23°C° 0 mm 8 m/S 703 mmHg 46%
    11:00 +26°C° 0 mm 9 m/S 703 mmHg 41%
    12:00 +27°C° 0 mm 8 m/S 702 mmHg 39%
    13:00 +28°C° 0 mm 7 m/S 702 mmHg 37%
    14:00 +28°C° 0 mm 7 m/S 701 mmHg 35%
    15:00 +28°C° 0 mm 6 m/S 701 mmHg 36%
    16:00 +28°C° 0 mm 6 m/S 701 mmHg 37%
    17:00 +28°C° 0 mm 5 m/S 700 mmHg 38%
    18:00 +25°C° 0 mm 5 m/S 700 mmHg 44%
    19:00 +22°C° 0 mm 4 m/S 700 mmHg 51%
    20:00 +20°C° 0 mm 4 m/S 700 mmHg 58%
    21:00 +20°C° 0 mm 5 m/S 700 mmHg 57%
    22:00 +20°C° 0 mm 6 m/S 700 mmHg 57%
    23:00 +20°C° 0 mm 7 m/S 700 mmHg 56%
    Mehr zeigen